This is the latest recevied weather packets stored in our database for station/object SV9TNF-2. If no packets are shown the sender has not sent any weather packets the latest 10 day(s).
| Time | Temp. | Humidity | Pressure | Rain* | Wind** | Luminosity | Snow |
|---|---|---|---|---|---|---|---|
| 1777625717 | 17.78° C | 74% | 1022.4 hPa | 0 mm | 8.05 m/s, 49° | - | - |
| 1777625417 | 17.78° C | 74% | 1022.4 hPa | 0 mm | 5.81 m/s, 80° | - | - |
| 1777625117 | 17.78° C | 75% | 1022.4 hPa | 0 mm | 10.28 m/s, 95° | - | - |
| 1777624817 | 17.78° C | 76% | 1022.4 hPa | 0 mm | 7.15 m/s, 96° | - | - |
| 1777624516 | 17.78° C | 77% | 1022.4 hPa | 0 mm | 5.36 m/s, 65° | - | - |
| 1777624216 | 18.33° C | 77% | 1022.4 hPa | 0 mm | 5.81 m/s, 76° | - | - |
| 1777623916 | 18.33° C | 76% | 1022.4 hPa | 0 mm | 5.81 m/s, 78° | - | - |
| 1777623616 | 17.78° C | 76% | 1022.4 hPa | 0 mm | 6.26 m/s, 75° | - | - |
| 1777623316 | 18.33° C | 75% | 1022.4 hPa | 0 mm | 9.83 m/s, 64° | - | - |
| 1777623016 | 18.33° C | 76% | 1022 hPa | 0 mm | 6.71 m/s, 79° | - | - |
| 1777622716 | 18.33° C | 76% | 1022 hPa | 0 mm | 9.39 m/s, 68° | - | - |
| 1777622416 | 18.33° C | 73% | 1022 hPa | 0 mm | 7.6 m/s, 80° | - | - |
| 1777622116 | 18.33° C | 72% | 1022 hPa | 0 mm | 6.26 m/s, 107° | - | - |
| 1777621816 | 18.33° C | 72% | 1022 hPa | 0 mm | 7.15 m/s, 75° | - | - |
| 1777621516 | 18.33° C | 73% | 1022 hPa | 0 mm | 8.94 m/s, 82° | - | - |
| 1777621215 | 18.33° C | 76% | 1022 hPa | 0 mm | 8.49 m/s, 79° | - | - |
| 1777620915 | 18.33° C | 75% | 1021.7 hPa | 0 mm | 5.36 m/s, 89° | - | - |
| 1777620615 | 18.33° C | 76% | 1021.7 hPa | 0 mm | 8.94 m/s, 94° | - | - |
| 1777620315 | 18.33° C | 76% | 1021.7 hPa | 0 mm | 12.07 m/s, 74° | - | - |
| 1777620015 | 18.33° C | 76% | 1021.7 hPa | 0 mm | 10.28 m/s, 77° | - | - |
| 1777619715 | 18.33° C | 77% | 1021.7 hPa | 0 mm | 10.28 m/s, 71° | - | - |
| 1777619415 | 18.33° C | 78% | 1021.7 hPa | 0 mm | 9.83 m/s, 121° | - | - |
| 1777619115 | 17.78° C | 78% | 1021.7 hPa | 0 mm | 11.62 m/s, 85° | - | - |
| 1777618815 | 17.78° C | 78% | 1021 hPa | 0 mm | 10.28 m/s, 69° | - | - |
| 1777618515 | 18.33° C | 79% | 1021 hPa | 0 mm | 9.83 m/s, 78° | - | - |
* Rain latest hour (hover to see other rain measurements)
** Current wind speed in m/s (hover to see current wind gust speed)